Theta_e
302 301 302 302 302 303 303 303 303 303 303 303 303 303 303 302 301 303 303 303 305 303 303 303 304 305 305 306 307 305 306 304 304 305 305 304 304 307 310 308 308 309 309 310 309 313 313 314 317 319 317 310 311 310
301 301 301 302 302 302 302 302 302 302 302 302 302 302 303 303 302 302 303 302 303 304 303 303 303 304 305 305 305 305 306 305 307 305 305 304 303 303 305 308 305 306 307 306 309 308 307 305 308 314 313 312 311 310
301 300 301 301 301 301 302 302 302 302 302 302 301 301 303 302 301 301 302 301 302 303 302 302 302 303 303 304 304 306 305 304 305 304 305 306 307 303 306 305 304 305 303 307 307 306 307 307 307 307 309 311 310 312
300 300 300 301 301 301 301 302 302 302 302 302 302 302 303 302 302 301 302 301 302 301 302 301 301 302 302 303 303 305 305 305 304 304 306 306 306 306 307 305 305 304 304 305 304 304 303 305 308 309 309 309 311 313
301 300 300 300 301 301 301 301 302 302 303 302 303 303 303 303 303 303 302 302 302 301 300 300 300 301 301 303 303 304 304 304 305 306 307 306 305 306 305 302 304 303 304 303 304 302 303 305 305 305 306 307 308 309
301 301 300 300 300 300 301 301 301 302 303 302 302 302 303 303 303 303 301 301 302 302 304 302 301 300 301 302 302 302 302 303 305 306 307 305 305 305 307 306 304 303 303 302 303 303 304 304 304 303 305 306 307 307
300 299 299 300 300 301 300 301 301 302 303 302 301 302 302 302 303 303 301 301 301 301 301 300 297 300 303 301 301 302 302 302 305 306 306 306 305 305 306 306 303 303 302 302 302 301 302 302 303 304 304 305 306 308
300 299 299 300 300 300 301 302 302 302 302 302 301 300 300 301 303 303 302 302 302 303 303 302 303 301 301 301 302 303 305 305 305 305 304 305 305 304 304 303 301 301 302 302 302 302 302 302 303 303 304 305 307 308
299 299 299 299 300 301 302 303 302 302 301 300 300 301 303 303 303 303 303 301 301 301 302 300 302 303 302 303 304 304 304 306 302 305 305 304 304 305 303 301 301 301 302 302 302 302 302 303 304 305 305 305 304 305
299 299 300 300 300 301 302 302 302 301 300 301 302 302 300 303 301 300 301 300 300 299 297 300 300 301 300 301 302 303 301 304 305 301 302 305 304 303 302 302 301 301 303 303 304 304 303 302 302 302 303 304 304 305
299 299 300 300 300 301 302 301 301 300 300 301 300 300 301 299 300 301 302 300 301 298 300 298 298 302 299 304 304 302 303 300 302 300 301 301 302 302 300 301 302 302 302 302 301 301 301 301 302 301 301 302 303 303
299 300 300 300 300 301 301 300 300 300 300 300 301 300 299 298 300 302 301 301 297 301 301 301 299 298 297 300 304 303 304 304 304 300 304 302 301 302 303 303 302 302 301 300 299 299 299 299 299 300 301 301 303 303
299 300 300 300 301 301 300 300 299 300 300 300 299 300 300 297 298 302 297 298 297 300 299 299 299 301 298 299 301 302 304 303 299 299 303 300 300 303 304 304 301 300 300 300 300 299 297 297 298 301 301 302 302 302
299 299 299 300 300 300 300 300 299 301 299 296 300 295 300 301 301 298 299 298 298 298 298 300 300 301 298 302 301 303 301 300 297 297 299 301 303 302 300 299 299 301 300 300 299 297 295 295 298 300 300 300 301 302
299 299 300 301 300 301 299 299 300 300 299 298 300 298 298 297 297 298 297 298 299 301 298 296 297 300 299 301 300 301 301 298 300 299 302 304 303 301 298 299 300 301 300 299 298 295 294 297 298 299 298 298 299 301
299 300 301 300 301 300 299 300 300 299 297 297 298 300 297 297 297 296 296 297 297 297 295 296 300 301 300 300 300 301 302 302 302 304 303 302 301 299 297 299 299 300 299 298 296 295 296 297 297 297 297 297 299 299
300 301 300 301 300 298 299 300 300 299 297 299 298 298 298 298 298 298 298 297 298 298 299 298 298 298 298 300 298 298 298 300 301 301 300 299 299 299 298 299 299 299 297 296 293 295 296 295 296 296 296 296 296 296
301 301 300 300 299 299 300 300 299 300 300 297 296 296 296 296 298 297 296 297 298 298 298 299 300 301 298 294 296 298 300 300 299 299 298 297 297 297 298 299 298 296 295 292 294 294 293 295 295 294 293 293 294 294
301 300 301 300 297 299 299 299 298 298 298 297 297 297 297 295 295 297 297 297 298 298 298 299 299 299 299 299 300 298 298 297 296 296 296 296 297 298 299 298 295 293 292 293 294 294 292 292 294 293 293 294 294 293
300 301 299 298 297 299 298 298 297 296 297 297 295 295 295 295 295 297 298 297 297 298 299 300 298 299 298 297 296 296 295 295 295 296 296 297 297 298 296 293 293 293 294 294 293 293 292 293 294 294 294 294 294 293
299 298 298 297 297 297 296 297 298 297 297 297 297 297 297 294 294 297 296 296 298 300 298 298 298 296 295 293 293 294 294 294 295 295 297 297 297 294 293 293 294 294 295 295 294 294 294 294 295 295 294 294 293 293
300 299 298 297 296 297 296 296 295 297 293 295 295 296 296 295 294 295 295 296 296 297 297 294 293 292 292 293 293 293 294 294 294 295 294 294 293 293 293 294 295 295 294 294 294 294 294 294 294 293 293 293 292 292
298 297 297 297 295 293 293 296 296 296 296 296 296 297 294 294 294 294 295 294 297 294 292 291 291 291 292 293 293 294 294 294 294 294 293 293 293 293 293 292 293 294 293 293 294 294 295 294 294 292 292 292 292 292
296 296 296 296 294 293 295 296 295 296 296 296 296 291 293 297 295 296 296 295 292 291 290 290 290 291 292 294 294 294 294 294 294 293 292 293 294 293 294 293 293 294 294 294 294 294 293 294 293 292 292 291 291 291
292 294 293 291 296 297 297 296 296 296 297 294 294 293 297 294 294 296 296 291 290 289 289 289 290 290 292 293 293 294 294 294 294 294 294 294 294 294 294 294 294 294 294 293 292 292 292 292 292 291 291 291 291 290
288 290 290 292 295 295 295 297 295 295 297 297 295 296 296 295 293 296 292 289 287 287 288 289 291 291 292 292 292 292 293 293 293 293 292 292 293 294 295 294 294 293 292 292 292 292 292 291 291 291 290 290 291 290
289 294 295 295 296 294 293 293 293 294 296 295 297 296 295 293 292 291 287 286 285 287 288 289 290 291 291 290 290 291 293 292 291 290 290 290 291 291 292 292 293 292 293 293 293 292 292 291 290 290 289 289 289 289
294 297 298 295 294 293 293 295 296 296 296 293 294 295 294 291 289 287 286 286 287 288 289 288 288 290 290 289 289 289 291 292 292 292 291 290 290 290 290 291 291 291 291 291 291 291 291 290 290 289 289 288 288 288
296 295 294 289 289 290 289 294 293 293 291 291 294 293 289 288 286 284 286 286 286 287 287 287 287 288 290 289 288 288 288 289 291 290 290 290 290 289 289 290 290 290 290 290 290 290 290 289 289 288 288 288 288 288
296 292 293 292 290 291 292 290 290 289 288 288 287 287 287 286 286 285 285 286 286 286 286 286 285 286 287 287 288 288 288 288 288 289 290 289 289 288 288 289 289 289 289 289 289 289 289 289 288 288 288 287 287 287
295 293 292 293 290 291 290 289 289 290 290 290 289 289 288 287 287 286 285 285 286 286 286 285 285 284 285 285 286 287 287 286 286 287 287 287 287 287 287 287 288 288 288 288 288 288 287 287 287 287 287 286 286 286
294 294 295 293 293 291 290 291 292 292 290 290 290 290 289 290 290 286 285 284 284 284 285 285 284 284 284 284 284 285 285 285 285 285 286 286 286 286 285 285 285 286 286 286 286 286 286 286 285 285 285 285 285 285
295 293 293 292 293 293 293 291 293 293 291 292 292 291 291 291 291 286 285 284 284 283 283 283 284 284 284 284 284 284 284 284 284 285 286 285 286 286 285 285 285 284 284 284 284 285 285 284 284 285 284 284 284 284
Wind_Speed
14 15 15 16 16 17 18 18 18 19 19 20 20 19 19 21 20 16 17 17 16 7 12 21 22 17 14 10 12 11 9 5 2 3 3 4 4 4 4 5 10 9 5 5 4 6 9 9 7 8 4 9 15 22
15 16 17 17 16 17 18 19 19 20 21 21 22 23 22 21 21 19 15 23 19 15 13 30 36 39 30 25 14 10 13 13 3 4 2 3 4 5 15 15 7 5 8 5 7 7 16 21 22 6 4 13 17 12
16 17 17 18 18 18 19 20 20 21 22 24 25 26 24 24 23 21 23 26 18 7 12 15 13 40 28 32 35 13 13 11 9 8 7 5 10 2 11 10 8 7 6 8 4 18 14 13 20 20 6 14 15 17
18 18 18 18 18 19 20 21 21 22 24 25 28 28 27 28 26 23 24 27 16 9 7 21 34 33 36 29 33 33 31 23 14 3 7 7 6 5 4 6 7 8 3 7 8 21 14 14 11 11 11 15 17 11
19 19 18 19 19 19 20 22 23 24 25 28 30 31 30 29 28 26 29 32 32 13 7 15 29 38 28 22 27 31 29 18 10 10 6 4 3 3 5 2 9 9 16 5 12 20 11 19 21 21 18 20 20 15
20 20 19 19 19 19 20 23 25 27 28 29 31 30 28 27 24 16 3 7 5 14 5 6 7 15 27 26 25 23 18 12 7 4 4 4 1 4 4 4 17 21 13 17 20 19 14 20 18 24 23 17 17 17
19 20 20 19 19 19 21 23 27 29 28 30 31 30 29 25 18 8 6 6 22 34 3 4 5 4 6 7 5 6 7 4 7 4 4 5 7 6 6 13 33 11 12 14 15 13 17 20 16 17 21 20 20 19
19 20 19 19 19 19 21 23 26 28 30 30 30 31 32 28 23 17 24 18 14 10 5 3 4 4 9 4 2 2 3 3 3 3 2 2 2 4 6 14 9 13 15 15 14 15 18 20 20 21 18 16 16 13
17 21 20 19 18 19 21 23 24 27 27 29 29 28 11 2 5 3 9 25 16 11 2 2 2 5 5 2 3 2 0 2 2 3 3 4 3 6 10 10 13 16 12 16 14 14 12 7 7 8 9 9 8 10
17 19 19 18 19 19 22 22 22 21 24 20 10 3 3 2 16 23 3 1 2 1 1 2 1 3 1 2 2 2 1 2 2 4 1 3 8 18 17 17 15 16 16 10 4 6 5 7 8 8 11 11 11 13
19 19 18 17 18 19 20 19 17 19 13 5 4 3 9 19 5 2 2 1 2 2 3 3 4 4 2 3 3 2 1 2 2 4 4 3 4 4 3 3 5 6 5 5 5 8 8 12 15 11 13 13 13 15
19 18 18 17 17 19 17 16 13 10 6 7 14 17 6 3 1 1 2 2 1 2 3 3 4 2 4 2 3 2 3 2 5 3 2 3 3 3 5 10 8 6 5 8 8 10 13 16 16 14 13 14 13 16
19 16 17 16 16 17 14 12 11 11 12 4 2 2 2 1 2 2 2 3 3 2 3 3 3 2 3 1 3 2 4 4 2 1 3 4 3 2 3 4 9 8 8 9 13 11 14 16 20 10 11 14 21 18
18 17 17 16 15 15 12 9 9 4 2 1 2 5 3 2 4 3 2 4 4 1 4 2 2 3 3 2 3 4 4 2 3 2 4 4 9 9 6 6 8 14 12 13 16 16 16 16 11 11 18 26 21 16
17 17 16 15 13 10 7 6 4 3 2 3 3 4 5 4 3 3 3 2 2 1 2 4 3 3 3 4 3 4 4 4 5 4 2 5 6 5 6 11 12 13 13 16 17 14 15 7 9 12 22 23 15 9
14 15 16 13 14 8 4 5 7 5 2 3 4 4 3 3 4 3 3 3 1 1 3 1 3 3 4 3 4 6 3 4 3 4 6 4 8 11 8 12 11 13 16 16 15 9 7 10 11 9 6 9 7 10
11 8 10 12 10 5 4 6 6 4 4 4 4 5 4 5 6 5 2 2 3 1 2 2 4 6 3 3 4 3 2 5 8 8 6 7 12 12 14 14 12 16 18 15 6 4 7 8 8 3 5 7 14 20
10 9 16 12 6 5 6 6 4 3 5 5 3 3 2 3 3 4 2 2 2 2 2 3 3 3 4 4 6 5 9 9 9 9 11 12 14 15 14 13 16 17 16 8 6 7 5 5 5 5 8 11 16 21
13 16 15 9 7 6 4 5 3 3 6 3 4 2 3 4 4 6 3 2 4 5 3 2 5 3 3 2 8 11 11 10 12 13 14 15 16 14 12 16 19 16 6 7 7 5 6 9 8 10 11 13 9 15
17 14 10 9 10 5 2 2 4 2 3 3 1 2 3 3 3 3 3 3 3 2 3 3 3 2 4 7 9 10 11 12 11 13 13 10 12 17 9 10 7 10 5 6 7 9 8 9 14 14 15 14 13 12
13 11 11 11 6 6 2 3 3 3 3 3 2 2 4 2 3 3 3 2 1 2 2 2 4 7 10 15 18 16 10 10 10 12 12 12 7 6 9 10 9 4 3 2 3 5 9 6 11 14 14 14 15 16
8 17 7 9 3 4 2 5 3 2 2 2 2 3 3 3 2 1 2 1 2 1 1 3 6 8 10 12 13 21 21 20 17 14 12 12 7 6 5 6 2 3 4 4 7 6 10 13 14 14 14 13 15 14
15 9 5 5 2 3 4 6 2 3 1 1 2 3 3 2 2 2 1 2 2 0 4 6 12 17 13 20 21 18 17 15 6 4 8 9 9 7 7 10 10 6 5 9 13 11 10 11 12 11 11 13 15 12
8 6 4 4 5 4 3 3 2 2 1 2 3 3 3 2 1 1 2 1 1 2 6 9 12 9 9 10 7 7 14 14 9 9 12 9 5 7 11 11 12 12 12 12 13 12 12 11 11 10 9 12 12 10
5 4 4 4 3 5 4 5 4 3 4 5 3 3 2 2 1 3 2 0 3 4 6 8 7 6 7 6 6 11 15 14 6 5 13 11 7 8 10 14 15 13 11 12 10 11 11 11 10 10 11 12 9 7
4 6 7 7 4 5 4 5 5 6 3 3 4 2 2 2 0 2 1 1 2 3 7 7 7 6 6 8 6 6 11 15 11 6 13 15 11 6 4 5 5 9 10 10 11 10 10 10 11 11 11 10 8 8
5 5 4 1 2 3 1 1 2 2 4 3 2 1 2 1 3 1 1 1 1 9 14 16 12 7 6 10 14 15 12 14 13 9 13 19 20 18 14 7 5 8 10 11 9 8 9 8 8 8 9 10 10 9
4 4 5 6 2 2 2 2 3 4 2 1 0 4 3 4 3 1 0 9 12 14 12 10 9 9 9 12 14 16 14 13 10 5 10 22 25 23 20 18 17 16 16 14 12 11 10 9 8 8 8 7 7 8
3 3 3 2 0 2 4 4 3 2 2 2 1 2 3 1 2 1 4 10 9 8 8 8 11 11 8 10 15 18 19 17 11 12 11 7 6 16 19 18 17 16 14 12 11 11 10 10 9 8 7 6 7 7
3 3 4 4 4 4 3 3 3 2 1 3 3 2 2 1 3 2 4 7 7 7 8 9 11 10 9 10 9 14 20 19 17 11 5 5 6 11 14 14 14 12 10 9 9 9 7 7 7 8 8 8 9 9
5 4 2 2 3 3 4 3 3 3 3 3 3 3 3 3 3 3 3 2 4 5 7 8 8 12 10 9 9 7 6 16 17 15 14 13 13 13 13 12 11 11 11 10 9 10 11 10 10 11 9 9 10 9
3 4 4 3 2 3 3 2 3 3 4 3 3 2 2 2 2 3 2 2 2 3 4 4 6 7 8 7 7 8 6 8 10 12 12 14 14 13 12 11 10 10 10 11 11 11 11 11 11 11 12 12 13 12
2 2 2 3 3 5 3 3 3 3 3 4 4 5 3 2 2 2 4 2 2 2 3 4 4 5 4 4 7 7 8 9 9 9 10 10 12 12 12 12 12 12 12 12 12 12 11 11 12 12 11 12 13 13
Wind_Direction
302 308 309 311 313 314 316 317 319 319 319 319 319 317 319 320 311 313 292 291 263 271 272 269 268 261 264 258 271 278 298 253 241 214 227 240 228 269 285 311 294 287 286 282 281 211 260 27 330 341 10 324 318 326
293 299 302 304 306 308 309 310 311 313 314 316 316 313 310 311 305 303 291 295 287 265 277 290 276 271 260 261 260 257 254 257 276 247 271 298 296 279 286 285 284 245 200 238 186 243 261 297 286 278 232 316 302 293
284 290 293 299 303 304 305 307 309 310 310 310 307 306 305 303 302 297 291 292 295 277 288 253 241 266 262 246 250 249 258 245 240 226 264 257 249 228 259 258 272 238 230 249 309 268 272 299 287 276 263 259 284 264
283 286 291 294 297 300 303 305 307 307 307 305 306 306 303 302 300 295 282 287 271 274 278 282 277 260 270 263 253 236 247 253 258 212 250 257 260 194 244 246 255 267 294 270 264 282 303 287 290 310 289 270 298 290
277 282 287 291 295 299 302 305 305 305 305 308 309 308 306 304 302 294 288 280 258 224 272 279 298 283 279 273 251 241 237 244 246 249 245 245 230 252 256 272 256 251 254 234 262 271 266 280 287 284 290 286 284 285
274 280 285 289 294 297 302 304 306 308 310 311 310 309 306 305 301 302 304 337 251 235 307 317 268 281 270 246 250 248 244 246 236 221 242 240 244 251 249 255 255 252 251 243 254 259 261 272 282 291 284 281 280 280
274 278 283 287 291 296 301 305 308 311 312 312 309 307 307 304 289 231 227 252 285 305 252 274 291 276 276 227 230 241 240 210 232 238 229 249 237 229 254 254 261 277 268 264 265 286 277 280 282 285 287 285 279 279
271 278 281 284 289 296 300 304 309 311 313 312 309 309 305 297 283 262 268 276 287 260 230 249 270 327 358 306 290 339 181 149 203 217 196 222 244 238 256 272 285 264 276 280 266 250 255 266 273 279 282 285 286 285
269 275 277 282 288 292 297 305 310 313 316 314 314 311 308 187 210 216 222 290 272 212 249 248 289 313 359 309 310 285 337 228 239 235 201 181 196 231 232 255 281 281 288 295 295 290 292 301 313 308 315 319 308 307
265 267 272 280 288 293 302 308 312 316 323 328 320 300 292 295 316 311 45 118 142 66 340 256 243 268 2 300 277 268 21 259 265 233 146 231 251 257 267 268 281 295 293 289 305 305 313 300 299 301 300 298 292 291
260 263 270 279 285 294 299 305 312 322 339 329 334 267 319 320 331 2 300 277 206 268 200 244 219 285 259 275 285 249 279 231 248 251 169 241 264 248 296 257 219 244 301 315 281 268 261 263 274 273 282 281 281 284
253 261 270 275 284 291 295 304 311 317 298 285 289 299 294 322 339 5 277 316 146 277 325 283 270 249 289 293 285 273 276 243 253 155 218 263 278 356 342 1 344 324 326 309 293 293 299 294 287 269 275 281 275 280
250 258 265 270 280 285 288 288 309 301 308 302 303 259 253 298 339 257 273 303 330 225 231 234 291 230 304 253 270 268 265 242 5 262 236 233 264 27 354 328 313 310 305 296 297 295 297 291 296 269 285 290 287 281
249 255 258 267 278 277 276 278 300 288 287 174 258 283 228 225 240 227 203 221 246 274 307 279 265 227 226 257 248 251 248 320 298 280 253 2 3 353 335 304 309 313 309 317 314 306 299 289 283 293 292 288 278 268
248 254 260 269 270 246 275 279 222 198 187 231 224 240 223 238 279 263 270 7 331 323 328 326 287 222 235 244 227 274 282 268 219 242 311 313 273 284 302 325 320 309 319 323 314 310 303 299 299 307 302 290 272 194
239 266 263 244 217 239 262 203 188 186 162 212 236 246 273 305 306 340 331 300 319 318 319 254 267 265 254 217 216 232 223 240 281 326 311 302 325 323 308 322 300 315 315 315 312 309 320 315 305 300 336 25 28 134
227 223 203 190 204 245 194 171 187 206 209 212 228 225 246 260 264 260 176 255 199 27 260 277 260 235 294 262 260 234 293 325 322 320 317 329 326 313 322 304 319 318 316 317 313 341 352 5 346 15 43 40 79 91
215 196 188 194 224 162 167 188 224 232 241 233 233 209 207 236 280 301 280 258 152 212 227 234 271 242 252 259 283 321 323 319 314 309 306 307 308 306 308 323 318 313 313 308 346 348 337 10 23 42 51 61 78 82
208 192 192 201 195 177 165 190 189 245 232 233 249 217 252 251 233 244 234 201 205 224 263 223 241 238 256 313 322 314 309 306 305 306 302 301 299 297 306 318 310 314 352 359 9 18 34 53 57 55 58 67 69 75
190 196 206 190 177 175 180 200 186 229 256 255 310 278 222 223 253 242 227 215 187 204 243 223 236 307 308 303 303 301 300 300 299 297 298 301 303 300 314 304 304 306 352 36 41 34 45 51 57 65 67 70 74 72
179 192 175 172 194 215 221 190 205 195 257 245 292 352 279 300 260 246 252 133 192 230 253 287 312 300 306 304 300 297 291 288 286 297 299 299 314 326 306 307 309 338 30 63 62 55 52 58 66 72 74 73 77 81
164 164 132 179 185 190 237 222 179 163 210 247 295 216 254 258 251 240 146 180 228 18 338 299 321 319 311 311 309 304 300 304 302 302 321 318 311 315 309 310 306 81 65 64 75 73 67 70 70 69 75 80 86 88
143 144 146 153 157 180 254 174 145 191 209 254 281 237 243 250 225 65 257 212 84 257 1 338 323 313 305 307 311 314 322 323 319 329 332 329 339 11 41 50 72 80 76 63 72 72 75 82 84 81 91 97 91 87
130 148 158 192 183 204 179 167 173 204 184 226 231 260 246 180 105 189 244 120 62 12 359 344 329 332 327 329 334 332 344 348 352 358 2 354 20 29 51 63 64 70 79 85 80 76 75 82 96 98 93 89 88 83
113 193 151 219 206 195 167 162 182 195 233 211 213 265 194 140 175 232 197 354 357 3 344 330 330 329 321 319 329 341 353 357 352 1 10 26 33 52 54 58 62 63 78 81 75 77 72 79 84 88 88 84 82 79
183 220 169 194 187 165 198 176 194 201 189 227 233 169 129 131 243 230 113 10 352 342 332 323 322 319 322 332 323 333 346 357 10 16 7 16 35 41 42 54 54 46 52 90 87 83 88 91 89 85 76 72 72 73
196 200 195 248 135 112 27 265 202 165 192 223 117 160 151 219 252 134 65 103 291 326 317 312 316 314 316 328 341 350 5 41 58 51 41 45 47 48 50 46 41 37 61 68 68 73 80 81 81 80 77 68 58 56
207 197 179 171 162 182 163 233 196 205 168 134 153 197 198 190 237 300 314 340 330 326 324 327 342 347 10 20 15 16 19 28 52 38 43 48 50 52 56 63 65 65 64 63 67 68 67 68 66 64 64 57 41 35
199 181 119 114 290 163 186 193 192 162 133 113 204 166 174 87 128 53 330 339 351 359 352 354 1 19 32 46 39 38 33 28 39 51 43 33 25 24 45 56 60 58 56 58 56 52 54 55 52 47 38 31 33 27
169 134 168 180 153 196 200 150 153 152 116 154 134 100 115 130 122 50 15 18 18 7 8 18 18 23 27 22 31 41 37 36 38 44 46 34 20 24 34 39 41 38 40 41 39 35 37 38 32 31 30 28 22 18
143 153 171 150 181 189 158 146 118 112 136 167 206 184 161 158 165 188 46 21 11 39 41 29 29 32 32 26 15 13 25 32 38 43 46 41 33 27 23 19 18 18 18 17 17 16 12 11 11 5 3 3 359 358
142 188 174 132 129 136 113 144 166 186 191 176 188 138 136 158 216 160 151 101 85 46 19 18 18 14 23 30 37 37 25 22 24 22 24 21 15 11 4 2 2 2 1 360 2 3 3 2 358 355 355 355 353 348
178 121 109 114 130 173 177 146 200 183 174 200 194 177 161 186 213 136 144 62 80 44 346 328 324 335 354 21 31 29 24 17 11 8 10 9 7 3 2 5 3 3 2 0 359 360 356 353 351 347 339 334 333 327